Location: Azat
(46.0765°N, 1.7600°E)
Time: 04:02:06
(UTC+00:00)

Cosmos 1908 - Pass Details

Date: 09 April 2020
Orbit: 511 x 531 km, 82.5° (Epoch: 02 June)

Event Time Altitude Azimuth Distance (km) Brightness Sun altitude
Rises 19:05:04 0° 173° (S) 2,635 6.5 -6.2°
Reaches altitude 10° 19:07:14 10° 168° (SSE) 1,756 5.6 -6.6°
Maximum altitude 19:10:56 47° 94° (E) 705 3.5 -7.2°
Drops below altitude 10° 19:14:42 10° 20° (NNE) 1,782 5.9 -7.8°
Sets 19:16:55 0° 15° (NNE) 2,680 6.9 -8.2°
